CZ-6A DEB, 54304

Orbit data source: Space-Track

CZ-6A DEB, 54304 is space debris in SSO originally from a launch on Fri, 11 Nov 2022 UTC launched from the Taiyaun Space Center, China (TSC). Debris objects in space refer to the collection of defunct objects orbiting the Earth. Examples of debris include non-operational satellites, rocket bodies, and fragments generated from explosions, collisions, or faulty payload assembly.

Loading next visibility...
Identifier
54304, 2022-151AX
Orbit
SSO
Country
Flag of CNCN / PRC
Related business
Manufacturer
SAST
Mission
Spacecraft
Bus & Motor
Unknown
Mass
Unknown
Launch date (UTC)
2022-11-11 (4 years ago)
Launch vehicle
Unknown
Launch site
Taiyaun Space Center, China (TSC)
Object type
Payload
Rocket body
Debris
Shape & HBR
Unknown shape, 0.1 m
Radar Cross Section
Medium (>0.1 m² and <1 m²)

Expand to show TLE details & history
Last TLE update: 13 hours ago

TLE from 13 hours ago
0 CZ-6A DEB
1 54304U 22151AX  26208.47328369  .00001485  00000-0  76025-3 0  9998
2 54304  98.8371 216.4401 0041563 195.3766 164.6148 14.16594415190525
Epoch: 2026-07-27T11:21Z
TLE epoch observation values (Epoch: 2026-07-27T11:21:31.710Z)
Latitude
-0.00006°
Longitude
100.90163°
Altitude
868.727 km
Speed
7.403 km/s
True Right ascension
14h 25m 45s
True Declination
0° 00' 00"
Sunlit
Object was in daylight at epoch
Visualization orbit readout
Latitude
Unknown
Longitude
Unknown
Altitude
Unknown
Speed
Unknown
Apparent Right ascension
Unknown
Apparent Declination
Unknown
Sunlit
N/A
Visualization observer readout
Local Sidereal Time
13:25:20
Azimuth
Unknown
Elevation
Unknown
Doppler factor
Unknown
Orbital elements
Apogee altitude
864.039 km
Perigee altitude
804.086 km
Semi-major axis
7,212.199 km
Eccentricity
0.00416
Inclination
98.8371°
RAAN
216.4401°
Arg. of periapsis
195.3766°
True anomaly
164.74053°
Mean anomaly
164.6148°
Eccentric anomaly
164.67773°
Mean motion
3.54357 °/min
Orbital period
101.59 mins
BSTAR
0.00076025
Loading maneuver chart data...
Computing Atmospheric mass density...
Loading historical data...
Loading historical data...
Loading historical data...
Loading historical data...
Loading historical data...
Loading historical data...
Loading historical data...

Documentation

Showing up to 5 results
|